Flag for Ukraine Weather past 2 weeks in Kryvyi Rih, Ukraine

Now
84 °F

Sunny.


Feels Like: 82 °F
Forecast: 67 / 90 °F
Wind: 3 mph from North

Location: Krivyy Rih / Dnipropetrovs'k

Current Time: Jul 29, 2015 at 7:03:12 PM

Latest Report: Jul 29, 2015 at 6:30 PM


Visibility: 10 mi

Pressure: 29.86 "Hg

Humidity: 29%

Dew point: 48 °F

Location of Kryvyi RihLocation

Historic Weather in Kryvyi Rih — Graph

°F

Kryvyi Rih temperature yesterday

Maximum temperature yesterday: 84 °F (at 12:00 PM)
Minimum temperature yesterday: 66 °F (at 5:00 AM)
Average temperature yesterday: 74 °F

Past Weeks' High & Low Weather Summary

 TemperatureHumidityPressure
High95 °F (Jul 26, 1:00 PM)100% (Jul 27, 7:00 AM)30.09 "Hg (Jul 27, 7:00 AM)
Low50 °F (Jul 19, 5:00 AM)23% (Jul 26, 1:00 PM)29.62 "Hg (Jul 26, 6:00 PM)
Average74 °F57%29.89 "Hg
* Reported Jul 14 6:00 PM — Jul 29 6:00 PM, Kryvyi Rih, Weather by CustomWeather, © 2015

Note: Actual official high and low records may vary slightly from our data, if they occured in-between our weather recording intervals... More about our weather records

Advertising

Kryvyi Rih weather history for previous 24 hours

 ConditionsComfort  
Time TempWeatherWind HumidityBarometerVisibility
6:00 PM
Wed, Jul 29
84 °FSunny.1 mph29%29.86 "Hg10 mi
5:30 PM86 °FPassing clouds.3 mph27%29.86 "HgN/A
5:00 PM86 °FSunny.3 mph27%29.86 "Hg10 mi
4:30 PM86 °FScattered clouds.6 mph27%29.86 "HgN/A
4:00 PM86 °FScattered clouds.6 mph27%29.86 "HgN/A
3:30 PM86 °FScattered clouds.8 mph27%29.86 "HgN/A
3:00 PM86 °FScattered clouds.8 mph27%29.86 "HgN/A
2:30 PM86 °FScattered clouds.6 mph27%29.86 "HgN/A
2:00 PM86 °FScattered clouds.6 mph27%29.86 "HgN/A
1:30 PM86 °FScattered clouds.8 mph29%29.86 "HgN/A
1:00 PM86 °FScattered clouds.10 mph29%29.86 "HgN/A
12:30 PM84 °FScattered clouds.8 mph33%29.86 "HgN/A
12:00 PM84 °FScattered clouds.6 mph33%29.86 "HgN/A
11:30 AM82 °FScattered clouds.6 mph40%29.86 "HgN/A
11:00 AM82 °FScattered clouds.6 mph40%29.86 "HgN/A
10:30 AM79 °FScattered clouds.6 mph54%29.86 "HgN/A
10:00 AM79 °FScattered clouds.6 mph54%29.86 "HgN/A
9:30 AM75 °FSunny.3 mph61%29.86 "Hg10 mi
9:00 AM75 °FSunny.3 mph61%29.86 "Hg10 mi
8:30 AM70 °FSunny.No wind69%29.86 "Hg10 mi
8:00 AM70 °FMore clouds than sun.No wind69%29.86 "HgN/A
7:30 AM68 °FMore clouds than sun.No wind73%29.86 "HgN/A
7:00 AM68 °FSunny.No wind73%29.86 "Hg10 mi
6:00 AM61 °FClear.No wind88%29.86 "Hg10 mi
5:30 AM63 °FClear.No wind83%29.83 "Hg10 mi
5:00 AM63 °FClear.3 mph83%29.83 "Hg10 mi
4:30 AM61 °FClear.1 mph88%29.83 "Hg10 mi
4:00 AM61 °FClear.3 mph88%29.83 "Hg10 mi
3:30 AM64 °FClear.1 mph83%29.83 "Hg10 mi
3:00 AM64 °FClear.3 mph83%29.80 "Hg10 mi
2:30 AM64 °FClear.6 mph83%29.80 "Hg10 mi
2:00 AM64 °FClear.3 mph83%29.80 "Hg10 mi
1:30 AM66 °FClear.3 mph78%29.80 "Hg10 mi
1:00 AM66 °FClear.3 mph78%29.80 "Hg10 mi
12:30 AM68 °FClear.3 mph78%29.80 "Hg10 mi
12:00 AM68 °FClear.No wind78%29.80 "Hg10 mi
11:30 PM
Tue, Jul 28
70 °FClear.No wind69%29.80 "Hg10 mi
11:00 PM70 °FClear.No wind69%29.77 "Hg10 mi
10:30 PM72 °FClear.1 mph65%29.77 "Hg10 mi
10:00 PM72 °FPassing clouds.3 mph65%29.77 "HgN/A
9:00 PM75 °FPassing clouds.6 mph61%29.74 "HgN/A
8:30 PM77 °FPartly sunny.6 mph57%29.74 "HgN/A
8:00 PM77 °FBroken clouds.6 mph57%29.74 "HgN/A
7:30 PM79 °FBroken clouds.6 mph58%29.71 "HgN/A
7:00 PM79 °FBroken clouds.8 mph58%29.71 "HgN/A
Weather by CustomWeather, © 2015

See weather overviewHow to use our weather pages